Location: Stara Lesna
(49.1528°N, 20.2911°E)
Time: 19:10:29
(UTC+02:00)

Okean 1-7 - Pass Details

Date: 13 July 2020
Orbit: 591 x 618 km, 82.5° (Epoch: 11 August)

Event Time Altitude Azimuth Distance (km) Brightness Sun altitude
Rises 01:21:07 0° 357° (N) 2,906 8.0 -18.6°
Reaches altitude 10° 01:23:32 10° 6° (N) 1,996 6.9 -18.5°
Maximum altitude 01:27:35 34° 72° (ENE) 1,017 4.4 -18.4°
Enters shadow 01:30:28 17° 130° (SE) 1,585 4.9 -18.3°
